Overview Statistics Trail Chart Weather Telemetry Raw packets
 

This is the latest recevied weather packets stored in our database for station/object VK4CWL-13. If no packets are shown the sender has not sent any weather packets the latest 10 day(s).

<< 106 107 108 109 110 111 112 >>
Time Temp. Humidity Pressure Rain* Wind** Luminosity Snow
1787868781 16.67° C 65% 1026.6 hPa 0 mm - - -
1787868479 16.67° C 64% 1026.6 hPa 0 mm - - -
1787868177 15.56° C 67% 1026.6 hPa 0 mm - - -
1787867874 15° C 67% 1026.6 hPa 0 mm - - -
1787867572 14.44° C 70% 1026.6 hPa 0 mm - - -
1787866967 12.78° C 73% 1026.6 hPa 0 mm - - -
1787866667 12.22° C 74% 1026.5 hPa 0 mm - - -
1787866363 11.67° C 75% 1026.4 hPa 0 mm - - -
1787866061 11.11° C 76% 1026.4 hPa 0 mm - - -
1787865758 11.11° C 76% 1026.4 hPa 0 mm - - -
1787865456 10.56° C 77% 1026.4 hPa 0 mm - - -
1787865154 10° C 78% 1026.3 hPa 0 mm - - -
1787864851 9.44° C 77% 1026.2 hPa 0 mm - - -
1787864549 9.44° C 78% 1026.1 hPa 0 mm - - -
1787864247 9.44° C 78% 1026.1 hPa 0 mm - - -
1787863944 9.44° C 77% 1026.1 hPa 0 mm - - -
1787863642 8.89° C 75% 1026 hPa 0 mm - - -
1787863340 8.89° C 75% 1025.9 hPa 0 mm - - -
1787863038 9.44° C 74% 1025.7 hPa 0 mm - - -
1787862736 9.44° C 73% 1025.8 hPa 0 mm - - -
1787862435 9.44° C 73% 1025.6 hPa 0 mm - - -
1787862131 9.44° C 72% 1025.8 hPa 0 mm - - -
1787861829 10° C 72% 1025.7 hPa 0 mm - - -
1787861526 10° C 71% 1025.5 hPa 0 mm - - -
1787861224 10° C 71% 1025.4 hPa 0 mm - - -

* Rain since midnight (hover to see other rain measurements)
** Current wind speed in m/s (hover to see current wind gust speed)